Year,Month,Day,Hour,Minute,Value (Times are PST for temperature in C)
2016,08,24,00,00,14.10
2016,08,24,00,01,14.10
2016,08,24,00,02,14.10
2016,08,24,00,03,14.10
2016,08,24,00,04,14.10
2016,08,24,00,05,14.00
2016,08,24,00,06,14.00
2016,08,24,00,07,14.00
2016,08,24,00,08,14.00
2016,08,24,00,09,14.00
2016,08,24,00,10,14.00
2016,08,24,00,11,13.90
2016,08,24,00,12,13.90
2016,08,24,00,13,13.90
2016,08,24,00,14,13.90
2016,08,24,00,15,13.90
2016,08,24,00,16,13.90
2016,08,24,00,17,13.90
2016,08,24,00,18,13.80
2016,08,24,00,19,13.80
2016,08,24,00,20,13.80
2016,08,24,00,21,13.80
2016,08,24,00,22,13.80
2016,08,24,00,23,13.80
2016,08,24,00,24,13.80
2016,08,24,00,25,13.70
2016,08,24,00,26,13.70
2016,08,24,00,27,13.70
2016,08,24,00,28,13.70
2016,08,24,00,29,13.70
2016,08,24,00,30,13.70
2016,08,24,00,31,13.70
2016,08,24,00,32,13.70
2016,08,24,00,33,13.70
2016,08,24,00,34,13.70
2016,08,24,00,35,13.70
2016,08,24,00,36,13.70
2016,08,24,00,37,13.70
2016,08,24,00,38,13.70
2016,08,24,00,39,13.70
2016,08,24,00,40,13.70
2016,08,24,00,41,13.70
2016,08,24,00,42,13.70
2016,08,24,00,43,13.70
2016,08,24,00,44,13.70
2016,08,24,00,45,13.70
2016,08,24,00,46,13.70
2016,08,24,00,47,13.70
2016,08,24,00,48,13.70
2016,08,24,00,49,13.70
2016,08,24,00,50,13.70
2016,08,24,00,51,13.70
2016,08,24,00,52,13.70
2016,08,24,00,53,13.70
2016,08,24,00,54,13.70
2016,08,24,00,55,13.70
2016,08,24,00,56,13.70
2016,08,24,00,57,13.70
2016,08,24,00,58,13.70
2016,08,24,00,59,13.70
2016,08,24,01,00,13.70
2016,08,24,01,01,13.70
2016,08,24,01,02,13.70
2016,08,24,01,03,13.70
2016,08,24,01,04,13.70
2016,08,24,01,05,13.70
2016,08,24,01,06,13.70
2016,08,24,01,07,13.70
2016,08,24,01,08,13.70
2016,08,24,01,09,13.70
2016,08,24,01,10,13.70
2016,08,24,01,11,13.70
2016,08,24,01,12,13.70
2016,08,24,01,13,13.70
2016,08,24,01,14,13.70
2016,08,24,01,15,13.70
2016,08,24,01,16,13.70
2016,08,24,01,17,13.70
2016,08,24,01,18,13.70
2016,08,24,01,19,13.70
2016,08,24,01,20,13.70
2016,08,24,01,21,13.70
2016,08,24,01,22,13.70
2016,08,24,01,23,13.70
2016,08,24,01,24,13.80
2016,08,24,01,25,13.80
2016,08,24,01,26,13.80
2016,08,24,01,27,13.80
2016,08,24,01,28,13.80
2016,08,24,01,29,13.80
2016,08,24,01,30,13.80
2016,08,24,01,31,13.80
2016,08,24,01,32,13.80
2016,08,24,01,33,13.90
2016,08,24,01,34,13.90
2016,08,24,01,35,13.90
2016,08,24,01,36,13.90
2016,08,24,01,37,13.90
2016,08,24,01,38,13.90
2016,08,24,01,39,13.90
2016,08,24,01,40,14.00
2016,08,24,01,41,14.00
2016,08,24,01,42,14.00
2016,08,24,01,43,14.00
2016,08,24,01,44,14.00
2016,08,24,01,45,14.10
2016,08,24,01,46,14.10
2016,08,24,01,47,14.10
2016,08,24,01,48,14.10
2016,08,24,01,49,14.10
2016,08,24,01,50,14.10
2016,08,24,01,51,14.20
2016,08,24,01,52,14.20
2016,08,24,01,53,14.20
2016,08,24,01,54,14.20
2016,08,24,01,55,14.20
2016,08,24,01,56,14.30
2016,08,24,01,57,14.30
2016,08,24,01,58,14.30
2016,08,24,01,59,14.30
2016,08,24,02,00,14.30
2016,08,24,02,01,14.30
2016,08,24,02,02,14.30
2016,08,24,02,03,14.30
2016,08,24,02,04,14.30
2016,08,24,02,05,14.40
2016,08,24,02,06,14.40
2016,08,24,02,07,14.40
2016,08,24,02,08,14.40
2016,08,24,02,09,14.40
2016,08,24,02,10,14.40
2016,08,24,02,11,14.40
2016,08,24,02,12,14.40
2016,08,24,02,13,14.40
2016,08,24,02,14,14.50
2016,08,24,02,15,14.50
2016,08,24,02,16,14.50
2016,08,24,02,17,14.50
2016,08,24,02,18,14.50
2016,08,24,02,19,14.60
2016,08,24,02,20,14.60
2016,08,24,02,21,14.60
2016,08,24,02,22,14.60
2016,08,24,02,23,14.60
2016,08,24,02,24,14.60
2016,08,24,02,25,14.60
2016,08,24,02,26,14.60
2016,08,24,02,27,14.60
2016,08,24,02,28,14.60
2016,08,24,02,29,14.60
2016,08,24,02,30,14.50
2016,08,24,02,31,14.50
2016,08,24,02,32,14.50
2016,08,24,02,33,14.50
2016,08,24,02,34,14.40
2016,08,24,02,35,14.40
2016,08,24,02,36,14.40
2016,08,24,02,37,14.40
2016,08,24,02,38,14.40
2016,08,24,02,39,14.40
2016,08,24,02,40,14.40
2016,08,24,02,41,14.40
2016,08,24,02,42,14.40
2016,08,24,02,43,14.40
2016,08,24,02,44,14.50
2016,08,24,02,45,14.50
2016,08,24,02,46,14.50
2016,08,24,02,47,14.50
2016,08,24,02,48,14.60
2016,08,24,02,49,14.60
2016,08,24,02,50,14.60
2016,08,24,02,51,14.60
2016,08,24,02,52,14.60
2016,08,24,02,53,14.60
2016,08,24,02,54,14.60
2016,08,24,02,55,14.60
2016,08,24,02,56,14.60
2016,08,24,02,57,14.60
2016,08,24,02,58,14.60
2016,08,24,02,59,14.60
2016,08,24,03,00,14.60
2016,08,24,03,01,14.60
2016,08,24,03,02,14.60
2016,08,24,03,03,14.60
2016,08,24,03,04,14.60
2016,08,24,03,05,14.70
2016,08,24,03,06,14.70
2016,08,24,03,07,14.80
2016,08,24,03,08,14.80
2016,08,24,03,09,14.80
2016,08,24,03,10,14.90
2016,08,24,03,11,14.90
2016,08,24,03,12,14.90
2016,08,24,03,13,15.00
2016,08,24,03,14,15.00
2016,08,24,03,15,15.00
2016,08,24,03,16,15.10
2016,08,24,03,17,15.10
2016,08,24,03,18,15.10
2016,08,24,03,19,15.20
2016,08,24,03,20,15.30
2016,08,24,03,21,15.30
2016,08,24,03,22,15.40
2016,08,24,03,23,15.40
2016,08,24,03,24,15.50
2016,08,24,03,25,15.60
2016,08,24,03,26,15.70
2016,08,24,03,27,15.80
2016,08,24,03,28,15.80
2016,08,24,03,29,15.90
2016,08,24,03,30,15.90
2016,08,24,03,31,16.00
2016,08,24,03,32,16.00
2016,08,24,03,33,16.00
2016,08,24,03,34,16.10
2016,08,24,03,35,16.10
2016,08,24,03,36,16.10
2016,08,24,03,37,16.00
2016,08,24,03,38,16.00
2016,08,24,03,39,16.00
2016,08,24,03,40,15.90
2016,08,24,03,41,15.90
2016,08,24,03,42,15.90
2016,08,24,03,43,15.90
2016,08,24,03,44,15.90
2016,08,24,03,45,15.80
2016,08,24,03,46,15.80
2016,08,24,03,47,15.80
2016,08,24,03,48,15.80
2016,08,24,03,49,15.80
2016,08,24,03,50,15.80
2016,08,24,03,51,15.80
2016,08,24,03,52,15.80
2016,08,24,03,53,15.80
2016,08,24,03,54,15.90
2016,08,24,03,55,16.00
2016,08,24,03,56,16.00
2016,08,24,03,57,16.10
2016,08,24,03,58,16.20
2016,08,24,03,59,16.20
2016,08,24,04,00,16.20
2016,08,24,04,01,16.20
2016,08,24,04,02,16.20
2016,08,24,04,03,16.30
2016,08,24,04,04,16.40
2016,08,24,04,05,16.50
2016,08,24,04,06,16.60
2016,08,24,04,07,16.60
2016,08,24,04,08,16.70
2016,08,24,04,09,16.70
2016,08,24,04,10,16.80
2016,08,24,04,11,16.80
2016,08,24,04,12,16.80
2016,08,24,04,13,16.80
2016,08,24,04,14,16.90
2016,08,24,04,15,16.90
2016,08,24,04,16,16.90
2016,08,24,04,17,16.90
2016,08,24,04,18,16.90
2016,08,24,04,19,16.90
2016,08,24,04,20,16.90
2016,08,24,04,21,16.90
2016,08,24,04,22,16.90
2016,08,24,04,23,16.90
2016,08,24,04,24,16.90
2016,08,24,04,25,16.90
2016,08,24,04,26,16.90
2016,08,24,04,27,16.90
2016,08,24,04,28,16.90
2016,08,24,04,29,16.90
2016,08,24,04,30,16.80
2016,08,24,04,31,16.80
2016,08,24,04,32,16.80
2016,08,24,04,33,16.70
2016,08,24,04,34,16.70
2016,08,24,04,35,16.60
2016,08,24,04,36,16.60
2016,08,24,04,37,16.50
2016,08,24,04,38,16.40
2016,08,24,04,39,16.40
2016,08,24,04,40,16.30
2016,08,24,04,41,16.20
2016,08,24,04,42,16.20
2016,08,24,04,43,16.10
2016,08,24,04,44,16.00
2016,08,24,04,45,16.00
2016,08,24,04,46,15.90
2016,08,24,04,47,15.90
2016,08,24,04,48,15.80
2016,08,24,04,49,15.80
2016,08,24,04,50,15.80
2016,08,24,04,51,15.80
2016,08,24,04,52,15.70
2016,08,24,04,53,15.70
2016,08,24,04,54,15.70
2016,08,24,04,55,15.70
2016,08,24,04,56,15.70
2016,08,24,04,57,15.60
2016,08,24,04,58,15.60
2016,08,24,04,59,15.60
2016,08,24,05,00,15.50
2016,08,24,05,01,15.50
2016,08,24,05,02,15.40
2016,08,24,05,03,15.40
2016,08,24,05,04,15.30
2016,08,24,05,05,15.30
2016,08,24,05,06,15.30
2016,08,24,05,07,15.30
2016,08,24,05,08,15.30
2016,08,24,05,09,15.40
2016,08,24,05,10,15.40
2016,08,24,05,11,15.40
2016,08,24,05,12,15.40
2016,08,24,05,13,15.50
2016,08,24,05,14,15.50
2016,08,24,05,15,15.50
2016,08,24,05,16,15.50
2016,08,24,05,17,15.60
2016,08,24,05,18,15.60
2016,08,24,05,19,15.60
2016,08,24,05,20,15.60
2016,08,24,05,21,15.60
2016,08,24,05,22,15.60
2016,08,24,05,23,15.60
2016,08,24,05,24,15.60
2016,08,24,05,25,15.60
2016,08,24,05,26,15.70
2016,08,24,05,27,15.70
2016,08,24,05,28,15.70
2016,08,24,05,29,15.70
2016,08,24,05,30,15.70
2016,08,24,05,31,15.70
2016,08,24,05,32,15.70
2016,08,24,05,33,15.70
2016,08,24,05,34,15.70
2016,08,24,05,35,15.70
2016,08,24,05,36,15.70
2016,08,24,05,37,15.70
2016,08,24,05,38,15.60
2016,08,24,05,39,15.60
2016,08,24,05,40,15.60
2016,08,24,05,41,15.60
2016,08,24,05,42,15.60
2016,08,24,05,43,15.50
2016,08,24,05,44,15.50
2016,08,24,05,45,15.50
2016,08,24,05,46,15.50
2016,08,24,05,47,15.50
2016,08,24,05,48,15.50
2016,08,24,05,49,15.60
2016,08,24,05,50,15.60
2016,08,24,05,51,15.60
2016,08,24,05,52,15.60
2016,08,24,05,53,15.70
2016,08,24,05,54,15.70
2016,08,24,05,55,15.70
2016,08,24,05,56,15.80
2016,08,24,05,57,15.80
2016,08,24,05,58,15.80
2016,08,24,05,59,15.80
2016,08,24,06,00,15.90
2016,08,24,06,01,15.90
2016,08,24,06,02,15.90
2016,08,24,06,03,15.90
2016,08,24,06,04,15.90
2016,08,24,06,05,15.80
2016,08,24,06,06,15.80
2016,08,24,06,07,15.80
2016,08,24,06,08,15.80
2016,08,24,06,09,15.80
2016,08,24,06,10,15.70
2016,08,24,06,11,15.70
2016,08,24,06,12,15.70
2016,08,24,06,13,15.60
2016,08,24,06,14,15.60
2016,08,24,06,15,15.60
2016,08,24,06,16,15.60
2016,08,24,06,17,15.60
2016,08,24,06,18,15.50
2016,08,24,06,19,15.50
2016,08,24,06,20,15.40
2016,08,24,06,21,15.40
2016,08,24,06,22,15.40
2016,08,24,06,23,15.30
2016,08,24,06,24,15.30
2016,08,24,06,25,15.30
2016,08,24,06,26,15.20
2016,08,24,06,27,15.20
2016,08,24,06,28,15.20
2016,08,24,06,29,15.20
2016,08,24,06,30,15.20
2016,08,24,06,31,15.30
2016,08,24,06,32,15.30
2016,08,24,06,33,15.30
2016,08,24,06,34,15.30
2016,08,24,06,35,15.20
2016,08,24,06,36,15.20
2016,08,24,06,37,15.20
2016,08,24,06,38,15.20
2016,08,24,06,39,15.20
2016,08,24,06,40,15.20
2016,08,24,06,41,15.20
2016,08,24,06,42,15.20
2016,08,24,06,43,15.20
2016,08,24,06,44,15.10
2016,08,24,06,45,15.10
2016,08,24,06,46,15.10
2016,08,24,06,47,15.10
2016,08,24,06,48,15.10
2016,08,24,06,49,15.10
2016,08,24,06,50,15.10
2016,08,24,06,51,15.10
2016,08,24,06,52,15.10
2016,08,24,06,53,15.10
2016,08,24,06,54,15.00
2016,08,24,06,55,15.00
2016,08,24,06,56,15.10
2016,08,24,06,57,15.10
2016,08,24,06,58,15.20
2016,08,24,06,59,15.20
2016,08,24,07,00,15.20
2016,08,24,07,01,15.30
2016,08,24,07,02,15.30
2016,08,24,07,03,15.30
2016,08,24,07,04,15.40
2016,08,24,07,05,15.40
2016,08,24,07,06,15.50
2016,08,24,07,07,15.50
2016,08,24,07,08,15.60
2016,08,24,07,09,15.70
2016,08,24,07,10,15.80
2016,08,24,07,11,15.90
2016,08,24,07,12,16.10
2016,08,24,07,13,16.30
2016,08,24,07,14,16.40
2016,08,24,07,15,16.50
2016,08,24,07,16,16.70
2016,08,24,07,17,16.80
2016,08,24,07,18,16.90
2016,08,24,07,19,16.90
2016,08,24,07,20,17.00
2016,08,24,07,21,17.10
2016,08,24,07,22,17.10
2016,08,24,07,23,17.10
2016,08,24,07,24,17.10
2016,08,24,07,25,17.10
2016,08,24,07,26,17.10
2016,08,24,07,27,17.10
2016,08,24,07,28,17.10
2016,08,24,07,29,17.10
2016,08,24,07,30,17.10
2016,08,24,07,31,17.20
2016,08,24,07,32,17.20
2016,08,24,07,33,17.20
2016,08,24,07,34,17.20
2016,08,24,07,35,17.30
2016,08,24,07,36,17.30
2016,08,24,07,37,17.30
2016,08,24,07,38,17.30
2016,08,24,07,39,17.30
2016,08,24,07,40,17.30
2016,08,24,07,41,17.30
2016,08,24,07,42,17.40
2016,08,24,07,43,17.40
2016,08,24,07,44,17.40
2016,08,24,07,45,17.50
2016,08,24,07,46,17.50
2016,08,24,07,47,17.60
2016,08,24,07,48,17.60
2016,08,24,07,49,17.70
2016,08,24,07,50,17.80
2016,08,24,07,51,17.80
2016,08,24,07,52,17.90
2016,08,24,07,53,17.90
2016,08,24,07,54,18.00
2016,08,24,07,55,18.10
2016,08,24,07,56,18.10
2016,08,24,07,57,18.20
2016,08,24,07,58,18.30
2016,08,24,07,59,18.40
2016,08,24,08,00,18.40
2016,08,24,08,01,18.50
2016,08,24,08,02,18.60
2016,08,24,08,03,18.60
2016,08,24,08,04,18.70
2016,08,24,08,05,18.70
2016,08,24,08,06,18.80
2016,08,24,08,07,18.90
2016,08,24,08,08,18.90
2016,08,24,08,09,19.00
2016,08,24,08,10,19.00
2016,08,24,08,11,19.10
2016,08,24,08,12,19.20
2016,08,24,08,13,19.20
2016,08,24,08,14,19.30
2016,08,24,08,15,19.30
2016,08,24,08,16,19.40
2016,08,24,08,17,19.40
2016,08,24,08,18,19.50
2016,08,24,08,19,19.60
2016,08,24,08,20,19.60
2016,08,24,08,21,19.70
2016,08,24,08,22,19.80
2016,08,24,08,23,19.80
2016,08,24,08,24,19.90
2016,08,24,08,25,19.90
2016,08,24,08,26,20.00
2016,08,24,08,27,20.00
2016,08,24,08,28,20.10
2016,08,24,08,29,20.20
2016,08,24,08,30,20.20
2016,08,24,08,31,20.20
2016,08,24,08,32,20.30
2016,08,24,08,33,20.30
2016,08,24,08,34,20.40
2016,08,24,08,35,20.40
2016,08,24,08,36,20.50
2016,08,24,08,37,20.50
2016,08,24,08,38,20.60
2016,08,24,08,39,20.60
2016,08,24,08,40,20.70
2016,08,24,08,41,20.70
2016,08,24,08,42,20.70
2016,08,24,08,43,20.70
2016,08,24,08,44,20.80
2016,08,24,08,45,20.80
2016,08,24,08,46,20.80
2016,08,24,08,47,20.90
2016,08,24,08,48,20.90
2016,08,24,08,49,20.90
2016,08,24,08,50,21.00
2016,08,24,08,51,21.10
2016,08,24,08,52,21.10
2016,08,24,08,53,21.10
2016,08,24,08,54,21.20
2016,08,24,08,55,21.20
2016,08,24,08,56,21.20
2016,08,24,08,57,21.30
2016,08,24,08,58,21.30
2016,08,24,08,59,21.40
2016,08,24,09,00,21.40
2016,08,24,09,01,21.50
2016,08,24,09,02,21.60
2016,08,24,09,03,21.60
2016,08,24,09,04,21.70
2016,08,24,09,05,21.80
2016,08,24,09,06,21.80
2016,08,24,09,07,21.90
2016,08,24,09,08,21.90
2016,08,24,09,09,22.00
2016,08,24,09,10,22.00
2016,08,24,09,11,22.10
2016,08,24,09,12,22.20
2016,08,24,09,13,22.20
2016,08,24,09,14,22.20
2016,08,24,09,15,22.30
2016,08,24,09,16,22.30
2016,08,24,09,17,22.30
2016,08,24,09,18,22.30
2016,08,24,09,19,22.30
2016,08,24,09,20,22.30
2016,08,24,09,21,22.30
2016,08,24,09,22,22.30
2016,08,24,09,23,22.30
2016,08,24,09,24,22.40
2016,08,24,09,25,22.40
2016,08,24,09,26,22.40
2016,08,24,09,27,22.40
2016,08,24,09,28,22.40
2016,08,24,09,29,22.40
2016,08,24,09,30,22.40
2016,08,24,09,31,22.50
2016,08,24,09,32,22.50
2016,08,24,09,33,22.60
2016,08,24,09,34,22.70
2016,08,24,09,35,22.70
2016,08,24,09,36,22.80
2016,08,24,09,37,22.80
2016,08,24,09,38,22.80
2016,08,24,09,39,22.90
2016,08,24,09,40,22.90
2016,08,24,09,41,23.00
2016,08,24,09,42,23.10
2016,08,24,09,43,23.20
2016,08,24,09,44,23.20
2016,08,24,09,45,23.30
2016,08,24,09,46,23.40
2016,08,24,09,47,23.40
2016,08,24,09,48,23.50
2016,08,24,09,49,23.50
2016,08,24,09,50,23.60
2016,08,24,09,51,23.60
2016,08,24,09,52,23.60
2016,08,24,09,53,23.70
2016,08,24,09,54,23.70
2016,08,24,09,55,23.80
2016,08,24,09,56,23.80
2016,08,24,09,57,23.80
2016,08,24,09,58,23.80
2016,08,24,09,59,23.70
2016,08,24,10,00,23.70
2016,08,24,10,01,23.60
2016,08,24,10,02,23.60
2016,08,24,10,03,23.50
2016,08,24,10,04,23.50
2016,08,24,10,05,23.50
2016,08,24,10,06,23.50
2016,08,24,10,07,23.60
2016,08,24,10,08,23.60
2016,08,24,10,09,23.60
2016,08,24,10,10,23.60
2016,08,24,10,11,23.60
2016,08,24,10,12,23.60
2016,08,24,10,13,23.60
2016,08,24,10,14,23.60
2016,08,24,10,15,23.60
2016,08,24,10,16,23.60
2016,08,24,10,17,23.50
2016,08,24,10,18,23.50
2016,08,24,10,19,23.50
2016,08,24,10,20,23.50
2016,08,24,10,21,23.50
2016,08,24,10,22,23.50
2016,08,24,10,23,23.40
2016,08,24,10,24,23.40
2016,08,24,10,25,23.50
2016,08,24,10,26,23.50
2016,08,24,10,27,23.60
2016,08,24,10,28,23.70
2016,08,24,10,29,23.70
2016,08,24,10,30,23.80
2016,08,24,10,31,23.90
2016,08,24,10,32,23.90
2016,08,24,10,33,24.00
2016,08,24,10,34,24.10
2016,08,24,10,35,24.20
2016,08,24,10,36,24.20
2016,08,24,10,37,24.30
2016,08,24,10,38,24.30
2016,08,24,10,39,24.30
2016,08,24,10,40,24.30
2016,08,24,10,41,24.40
2016,08,24,10,42,24.40
2016,08,24,10,43,24.40
2016,08,24,10,44,24.40
2016,08,24,10,45,24.40
2016,08,24,10,46,24.40
2016,08,24,10,47,24.50
2016,08,24,10,48,24.60
2016,08,24,10,49,24.60
2016,08,24,10,50,24.70
2016,08,24,10,51,24.70
2016,08,24,10,52,24.80
2016,08,24,10,53,24.90
2016,08,24,10,54,25.00
2016,08,24,10,55,25.10
2016,08,24,10,56,25.20
2016,08,24,10,57,25.30
2016,08,24,10,58,25.30
2016,08,24,10,59,25.40
2016,08,24,11,00,25.50
2016,08,24,11,01,25.50
2016,08,24,11,02,25.60
2016,08,24,11,03,25.60
2016,08,24,11,04,25.60
2016,08,24,11,05,25.60
2016,08,24,11,06,25.60
2016,08,24,11,07,25.60
2016,08,24,11,08,25.70
2016,08,24,11,09,25.70
2016,08,24,11,10,25.70
2016,08,24,11,11,25.80
2016,08,24,11,12,25.80
2016,08,24,11,13,25.90
2016,08,24,11,14,25.90
2016,08,24,11,15,26.00
2016,08,24,11,16,26.00
2016,08,24,11,17,26.10
2016,08,24,11,18,26.10
2016,08,24,11,19,26.10
2016,08,24,11,20,26.20
2016,08,24,11,21,26.10
2016,08,24,11,22,26.10
2016,08,24,11,23,26.00
2016,08,24,11,24,26.00
2016,08,24,11,25,25.90
2016,08,24,11,26,25.80
2016,08,24,11,27,25.70
2016,08,24,11,28,25.70
2016,08,24,11,29,25.70
2016,08,24,11,30,25.70
2016,08,24,11,31,25.70
2016,08,24,11,32,25.70
2016,08,24,11,33,25.70
2016,08,24,11,34,25.70
2016,08,24,11,35,25.70
2016,08,24,11,36,25.70
2016,08,24,11,37,25.70
2016,08,24,11,38,25.70
2016,08,24,11,39,25.70
2016,08,24,11,40,25.70
2016,08,24,11,41,25.70
2016,08,24,11,42,25.60
2016,08,24,11,43,25.60
2016,08,24,11,44,25.60
2016,08,24,11,45,25.60
2016,08,24,11,46,25.60
2016,08,24,11,47,25.70
2016,08,24,11,48,25.70
2016,08,24,11,49,25.70
2016,08,24,11,50,25.70
2016,08,24,11,51,25.70
2016,08,24,11,52,25.70
2016,08,24,11,53,25.80
2016,08,24,11,54,25.80
2016,08,24,11,55,25.80
2016,08,24,11,56,25.70
2016,08,24,11,57,25.80
2016,08,24,11,58,25.70
2016,08,24,11,59,25.70
2016,08,24,12,00,25.80
2016,08,24,12,01,25.80
2016,08,24,12,02,25.80
2016,08,24,12,03,25.80
2016,08,24,12,04,25.90
2016,08,24,12,05,26.00
2016,08,24,12,06,26.10
2016,08,24,12,07,26.20
2016,08,24,12,08,26.20
2016,08,24,12,09,26.30
2016,08,24,12,10,26.40
2016,08,24,12,11,26.40
2016,08,24,12,12,26.50
2016,08,24,12,13,26.60
2016,08,24,12,14,26.60
2016,08,24,12,15,26.80
2016,08,24,12,16,26.80
2016,08,24,12,17,26.90
2016,08,24,12,18,26.90
2016,08,24,12,19,26.90
2016,08,24,12,20,26.90
2016,08,24,12,21,26.90
2016,08,24,12,22,26.80
2016,08,24,12,23,26.80
2016,08,24,12,24,26.90
2016,08,24,12,25,26.90
2016,08,24,12,26,26.80
2016,08,24,12,27,26.80
2016,08,24,12,28,26.80
2016,08,24,12,29,26.90
2016,08,24,12,30,26.90
2016,08,24,12,31,27.00
2016,08,24,12,32,27.10
2016,08,24,12,33,27.10
2016,08,24,12,34,27.20
2016,08,24,12,35,27.20
2016,08,24,12,36,27.30
2016,08,24,12,37,27.40
2016,08,24,12,38,27.50
2016,08,24,12,39,27.60
2016,08,24,12,40,27.70
2016,08,24,12,41,27.80
2016,08,24,12,42,27.80
2016,08,24,12,43,27.80
2016,08,24,12,44,27.90
2016,08,24,12,45,27.90
2016,08,24,12,46,28.00
2016,08,24,12,47,28.10
2016,08,24,12,48,28.10
2016,08,24,12,49,28.10
2016,08,24,12,50,28.10
2016,08,24,12,51,28.00
2016,08,24,12,52,27.90
2016,08,24,12,53,27.90
2016,08,24,12,54,27.80
2016,08,24,12,55,27.70
2016,08,24,12,56,27.60
2016,08,24,12,57,27.50
2016,08,24,12,58,27.50
2016,08,24,12,59,27.60
2016,08,24,13,00,27.60
2016,08,24,13,01,27.70
2016,08,24,13,02,27.80
2016,08,24,13,03,27.90
2016,08,24,13,04,28.00
2016,08,24,13,05,28.10
2016,08,24,13,06,28.20
2016,08,24,13,07,28.30
2016,08,24,13,08,28.30
2016,08,24,13,09,28.20
2016,08,24,13,10,28.10
2016,08,24,13,11,28.10
2016,08,24,13,12,28.00
2016,08,24,13,13,28.10
2016,08,24,13,14,28.10
2016,08,24,13,15,28.20
2016,08,24,13,16,28.20
2016,08,24,13,17,28.20
2016,08,24,13,18,28.20
2016,08,24,13,19,28.30
2016,08,24,13,20,28.30
2016,08,24,13,21,28.30
2016,08,24,13,22,28.30
2016,08,24,13,23,28.40
2016,08,24,13,24,28.40
2016,08,24,13,25,28.50
2016,08,24,13,26,28.60
2016,08,24,13,27,28.60
2016,08,24,13,28,28.70
2016,08,24,13,29,28.80
2016,08,24,13,30,28.90
2016,08,24,13,31,29.00
2016,08,24,13,32,29.00
2016,08,24,13,33,29.10
2016,08,24,13,34,29.10
2016,08,24,13,35,29.10
2016,08,24,13,36,29.20
2016,08,24,13,37,29.20
2016,08,24,13,38,29.20
2016,08,24,13,39,29.10
2016,08,24,13,40,29.10
2016,08,24,13,41,29.10
2016,08,24,13,42,29.00
2016,08,24,13,43,29.00
2016,08,24,13,44,29.00
2016,08,24,13,45,29.00
2016,08,24,13,46,28.90
2016,08,24,13,47,28.80
2016,08,24,13,48,28.70
2016,08,24,13,49,28.60
2016,08,24,13,50,28.50
2016,08,24,13,51,28.50
2016,08,24,13,52,28.40
2016,08,24,13,53,28.40
2016,08,24,13,54,28.30
2016,08,24,13,55,28.30
2016,08,24,13,56,28.30
2016,08,24,13,57,28.30
2016,08,24,13,58,28.40
2016,08,24,13,59,28.40
2016,08,24,14,00,28.40
2016,08,24,14,01,28.50
2016,08,24,14,02,28.60
2016,08,24,14,03,28.70
2016,08,24,14,04,28.70
2016,08,24,14,05,28.70
2016,08,24,14,06,28.80
2016,08,24,14,07,28.90
2016,08,24,14,08,29.00
2016,08,24,14,09,29.10
2016,08,24,14,10,29.20
2016,08,24,14,11,29.30
2016,08,24,14,12,29.50
2016,08,24,14,13,29.50
2016,08,24,14,14,29.50
2016,08,24,14,15,29.50
2016,08,24,14,16,29.50
2016,08,24,14,17,29.50
2016,08,24,14,18,29.50
2016,08,24,14,19,29.40
2016,08,24,14,20,29.20
2016,08,24,14,21,29.10
2016,08,24,14,22,29.00
2016,08,24,14,23,28.90
2016,08,24,14,24,28.80
2016,08,24,14,25,28.80
2016,08,24,14,26,28.70
2016,08,24,14,27,28.70
2016,08,24,14,28,28.60
2016,08,24,14,29,28.60
2016,08,24,14,30,28.70
2016,08,24,14,31,28.70
2016,08,24,14,32,28.70
2016,08,24,14,33,28.70
2016,08,24,14,34,28.80
2016,08,24,14,35,28.80
2016,08,24,14,36,28.90
2016,08,24,14,37,28.90
2016,08,24,14,38,28.90
2016,08,24,14,39,28.90
2016,08,24,14,40,29.00
2016,08,24,14,41,29.00
2016,08,24,14,42,29.00
2016,08,24,14,43,29.10
2016,08,24,14,44,29.10
2016,08,24,14,45,29.10
2016,08,24,14,46,29.20
2016,08,24,14,47,29.20
2016,08,24,14,48,29.20
2016,08,24,14,49,29.10
2016,08,24,14,50,29.10
2016,08,24,14,51,29.00
2016,08,24,14,52,29.00
2016,08,24,14,53,28.90
2016,08,24,14,54,28.90
2016,08,24,14,55,29.00
2016,08,24,14,56,29.10
2016,08,24,14,57,29.10
2016,08,24,14,58,29.20
2016,08,24,14,59,29.30
2016,08,24,15,00,29.30
2016,08,24,15,01,29.40
2016,08,24,15,02,29.40
2016,08,24,15,03,29.30
2016,08,24,15,04,29.30
2016,08,24,15,05,29.30
2016,08,24,15,06,29.30
2016,08,24,15,07,29.30
2016,08,24,15,08,29.30
2016,08,24,15,09,29.30
2016,08,24,15,10,29.30
2016,08,24,15,11,29.30
2016,08,24,15,12,29.30
2016,08,24,15,13,29.30
2016,08,24,15,14,29.30
2016,08,24,15,15,29.20
2016,08,24,15,16,29.20
2016,08,24,15,17,29.30
2016,08,24,15,18,29.30
2016,08,24,15,19,29.30
2016,08,24,15,20,29.30
2016,08,24,15,21,29.30
2016,08,24,15,22,29.30
2016,08,24,15,23,29.30
2016,08,24,15,24,29.40
2016,08,24,15,25,29.40
2016,08,24,15,26,29.50
2016,08,24,15,27,29.50
2016,08,24,15,28,29.60
2016,08,24,15,29,29.60
2016,08,24,15,30,29.60
2016,08,24,15,31,29.50
2016,08,24,15,32,29.50
2016,08,24,15,33,29.60
2016,08,24,15,34,29.60
2016,08,24,15,35,29.60
2016,08,24,15,36,29.60
2016,08,24,15,37,29.60
2016,08,24,15,38,29.60
2016,08,24,15,39,29.60
2016,08,24,15,40,29.60
2016,08,24,15,41,29.60
2016,08,24,15,42,29.60
2016,08,24,15,43,29.70
2016,08,24,15,44,29.70
2016,08,24,15,45,29.70
2016,08,24,15,46,29.70
2016,08,24,15,47,29.70
2016,08,24,15,48,29.70
2016,08,24,15,49,29.70
2016,08,24,15,50,29.80
2016,08,24,15,51,29.80
2016,08,24,15,52,29.80
2016,08,24,15,53,29.80
2016,08,24,15,54,29.80
2016,08,24,15,55,29.90
2016,08,24,15,56,30.00
2016,08,24,15,57,30.10
2016,08,24,15,58,30.10
2016,08,24,15,59,30.10
2016,08,24,16,00,30.10
2016,08,24,16,01,30.10
2016,08,24,16,02,30.20
2016,08,24,16,03,30.20
2016,08,24,16,04,30.20
2016,08,24,16,05,30.20
2016,08,24,16,06,30.20
2016,08,24,16,07,30.20
2016,08,24,16,08,30.30
2016,08,24,16,09,30.40
2016,08,24,16,10,30.40
2016,08,24,16,11,30.50
2016,08,24,16,12,30.50
2016,08,24,16,13,30.50
2016,08,24,16,14,30.40
2016,08,24,16,15,30.40
2016,08,24,16,16,30.40
2016,08,24,16,17,30.30
2016,08,24,16,18,30.30
2016,08,24,16,19,30.30
2016,08,24,16,20,30.30
2016,08,24,16,21,30.30
2016,08,24,16,22,30.30
2016,08,24,16,23,30.30
2016,08,24,16,24,30.20
2016,08,24,16,25,30.20
2016,08,24,16,26,30.20
2016,08,24,16,27,30.20
2016,08,24,16,28,30.30
2016,08,24,16,29,30.30
2016,08,24,16,30,30.30
2016,08,24,16,31,30.30
2016,08,24,16,32,30.40
2016,08,24,16,33,30.40
2016,08,24,16,34,30.40
2016,08,24,16,35,30.40
2016,08,24,16,36,30.40
2016,08,24,16,37,30.40
2016,08,24,16,38,30.40
2016,08,24,16,39,30.40
2016,08,24,16,40,30.40
2016,08,24,16,41,30.40
2016,08,24,16,42,30.40
2016,08,24,16,43,30.40
2016,08,24,16,44,30.50
2016,08,24,16,45,30.50
2016,08,24,16,46,30.60
2016,08,24,16,47,30.70
2016,08,24,16,48,30.70
2016,08,24,16,49,30.70
2016,08,24,16,50,30.70
2016,08,24,16,51,30.70
2016,08,24,16,52,30.70
2016,08,24,16,53,30.70
2016,08,24,16,54,30.70
2016,08,24,16,55,30.70
2016,08,24,16,56,30.70
2016,08,24,16,57,30.70
2016,08,24,16,58,30.70
2016,08,24,16,59,30.70
2016,08,24,17,00,30.70
2016,08,24,17,01,30.70
2016,08,24,17,02,30.80
2016,08,24,17,03,30.80
2016,08,24,17,04,30.80
2016,08,24,17,05,30.80
2016,08,24,17,06,30.80
2016,08,24,17,07,30.80
2016,08,24,17,08,30.80
2016,08,24,17,09,30.90
2016,08,24,17,10,30.90
2016,08,24,17,11,30.90
2016,08,24,17,12,30.90
2016,08,24,17,13,31.00
2016,08,24,17,14,31.00
2016,08,24,17,15,31.10
2016,08,24,17,16,31.10
2016,08,24,17,17,31.10
2016,08,24,17,18,31.20
2016,08,24,17,19,31.20